GEFSSE_con_cape1000_150.txt.gz
Probability
29 52 87 100 100 100 100 100 100 100 100 100 100 100 100 100 100 100 100 97 100 100 100 100 100 100 94 90 94 97 97 97 94 90 94 94 94 94 94 84 90 74 90
32 61 87 100 100 100 100 100 100 100 100 100 100 100 100 100 100 100 100 100 100 100 97 94 94 97 97 94 94 94 94 97 100 94 94 94 94 94 90 77 84 87 94
65 65 65 100 100 100 100 100 100 100 100 100 100 100 100 100 100 100 100 100 97 97 94 90 94 94 94 94 94 94 97 100 100 94 94 87 74 90 77 77 87 84 84
58 65 55 100 100 100 100 100 100 100 100 100 100 100 100 100 100 100 100 97 97 94 90 90 90 87 90 94 97 97 97 97 97 100 90 52 61 87 81 81 90 87 87
61 55 84 100 100 100 100 100 100 100 97 100 100 100 100 100 100 100 100 97 97 97 90 90 90 90 87 90 90 90 87 90 90 87 32 45 81 90 81 87 87 87 87
48 58 87 97 97 97 100 97 97 100 100 100 100 100 100 97 97 97 100 97 94 94 94 90 90 90 87 90 90 90 84 84 87 68 42 39 71 90 87 87 90 87 84
58 71 84 94 94 94 94 94 97 100 100 100 100 100 100 100 97 97 97 94 94 90 90 90 87 90 90 87 84 87 77 87 84 68 55 52 74 90 77 84 77 74 74
65 71 94 94 97 97 97 94 94 94 94 97 100 100 100 100 100 100 97 97 90 90 84 84 87 87 87 87 84 84 84 90 74 61 61 55 90 87 74 84 81 81 74
74 77 81 84 94 97 97 97 97 94 94 94 94 94 100 100 100 94 94 90 90 94 94 87 87 84 77 81 71 84 87 84 68 68 52 74 81 81 77 87 77 77 74
81 84 90 84 87 87 90 94 94 94 90 90 87 87 87 84 90 90 94 90 94 90 94 94 94 94 90 87 90 81 84 71 61 58 65 77 87 81 81 87 74 77 68
74 81 84 84 87 84 74 87 87 87 87 87 87 87 87 77 77 84 77 94 94 87 84 87 87 87 87 84 81 84 84 58 42 52 65 87 87 81 87 90 87 84 77
77 81 81 84 84 81 74 87 84 81 84 81 81 81 84 77 81 61 74 81 84 84 87 84 81 84 77 65 71 77 58 52 48 58 68 77 74 68 81 77 77 77 65
77 81 77 81 81 74 81 81 77 77 77 77 77 77 84 77 77 77 77 74 74 74 74 71 74 65 55 58 58 48 48 39 52 45 68 71 68 65 71 68 65 77 71
74 71 74 81 81 81 81 77 77 81 77 77 84 81 77 81 77 74 74 68 68 65 71 65 71 58 52 42 35 29 48 42 48 58 77 65 68 65 61 61 61 68 58
74 74 77 77 81 81 84 77 77 77 77 77 74 71 71 71 71 74 71 71 68 65 74 68 58 58 65 55 55 35 45 48 48 58 68 68 65 65 68 61 55 61 55
77 71 74 74 77 77 81 81 74 71 81 74 71 71 71 71 71 68 68 68 71 71 68 68 65 68 71 61 55 48 48 35 45 45 52 55 58 58 61 61 58 52 42
74 74 74 71 74 71 68 74 74 74 71 68 68 71 68 65 61 61 68 71 65 68 65 65 58 65 65 61 65 58 58 45 42 45 48 48 52 52 58 65 61 55 42
74 77 77 61 65 68 74 77 65 65 65 65 65 65 65 65 65 68 61 61 61 61 58 58 55 58 65 65 68 68 58 58 55 52 45 42 52 39 42 48 45 48 42
65 71 71 65 65 61 58 55 55 58 55 55 55 58 55 55 55 48 52 55 48 45 42 35 45 52 52 58 55 61 55 58 55 35 26 39 45 48 52 29 35 39 42
58 65 61 65 58 52 48 48 52 48 48 48 48 45 45 45 45 45 42 48 42 42 35 35 39 39 39 42 23 23 42 45 48 48 45 35 45 32 32 29 39 39 32
55 58 61 52 52 48 52 48 48 45 42 45 39 39 39 39 39 45 32 42 35 32 35 35 39 35 35 35 32 29 26 32 35 42 39 32 26 32 32 29 42 45 32
45 48 55 52 48 55 55 55 58 52 48 39 39 35 35 35 39 35 39 35 29 32 35 32 32 29 32 32 23 19 13 16 39 6 19 23 26 23 23 10 23 29 26
42 42 39 42 39 39 45 42 42 42 42 35 35 35 35 32 35 35 35 29 29 35 32 32 32 29 29 29 23 23 10 6 19 19 13 16 23 23 23 16 13 13 13
39 39 39 39 39 42 39 35 35 42 39 32 32 29 32 29 29 26 26 26 32 32 35 32 19 26 29 26 23 23 23 16 10 16 19 10 13 16 13 10 3 6 13
32 32 32 32 32 32 32 39 39 35 32 32 32 29 29 29 26 23 29 23 32 32 29 32 26 16 16 19 13 10 10 13 16 10 3 6 10 13 13 6 6 3 13
39 39 29 32 29 32 32 29 35 29 32 29 35 29 32 29 29 19 19 19 26 23 26 23 16 19 13 6 3 10 6 13 3 10 6 10 10 6 6 6 6 10 13

GEFSSE_con_cape1000_156.txt.gz
Probability
45 61 100 100 100 100 100 100 100 100 100 100 100 100 100 100 100 100 97 97 100 97 97 94 90 84 77 84 84 84 87 90 90 90 87 84 97 90 87 87 84 87 87
52 74 100 100 100 100 100 100 100 100 100 100 100 100 100 97 100 97 97 97 94 90 94 90 87 77 81 84 84 84 84 84 84 94 94 90 90 87 84 84 90 84 90
48 68 97 100 100 100 100 100 100 100 100 100 100 100 100 100 100 97 100 97 90 81 81 84 87 84 87 87 87 77 87 84 87 94 94 87 87 84 81 90 87 87 87
42 58 81 100 100 100 100 100 100 100 100 100 100 100 100 100 100 100 100 97 87 87 84 77 81 81 81 87 87 87 87 81 87 94 97 84 71 81 81 84 77 87 84
39 55 97 100 100 100 97 97 97 97 97 97 97 97 100 97 97 100 94 87 84 84 81 81 77 84 84 84 81 74 71 77 87 90 81 74 84 87 87 87 84 87 90
45 65 94 94 97 94 94 94 97 97 97 97 97 97 94 90 90 90 90 87 74 84 77 71 77 74 77 84 81 77 71 84 84 77 74 77 74 84 87 87 90 74 74
65 58 84 94 94 94 94 94 94 94 94 97 94 97 94 94 90 94 84 77 77 77 77 74 74 77 71 74 74 77 74 81 87 81 81 71 81 94 87 87 87 71 65
65 42 84 94 94 97 97 97 94 97 97 94 94 90 90 90 90 87 84 81 81 74 71 71 71 71 71 74 77 84 84 90 81 68 61 68 81 87 87 84 84 74 65
65 52 68 84 90 94 94 94 94 97 94 94 84 87 87 87 87 87 77 74 81 81 77 71 68 74 87 81 81 84 84 94 77 65 68 71 77 84 84 87 81 77 71
74 61 52 48 74 84 94 94 94 94 90 90 87 81 77 77 90 90 90 90 81 84 84 87 94 84 81 84 84 90 94 94 55 48 55 77 84 81 87 84 84 77 77
77 65 65 58 74 65 68 84 87 87 87 84 74 77 81 84 84 84 84 84 81 77 81 84 87 94 90 87 90 87 87 58 45 45 52 77 84 81 84 84 81 81 77
74 71 65 61 71 68 68 87 90 81 87 81 81 84 90 90 81 74 74 84 87 87 84 81 87 90 87 77 77 87 68 52 42 55 45 81 74 77 77 84 77 68 68
77 74 65 65 65 71 84 77 87 87 87 84 87 84 84 84 84 81 81 77 81 81 81 87 84 81 74 68 74 71 58 39 42 52 45 68 71 71 74 81 71 71 61
81 74 71 74 74 77 84 81 81 84 94 74 84 81 81 81 81 81 84 81 81 81 81 77 87 71 68 74 52 52 58 55 52 52 65 71 61 65 61 61 61 61 58
74 68 68 81 84 87 87 87 81 84 87 81 81 81 81 81 81 74 74 81 74 74 74 74 68 71 68 55 58 45 52 55 48 45 55 68 71 61 61 55 65 58 55
77 81 81 81 81 84 84 84 84 81 81 81 81 77 77 77 81 74 77 74 74 74 74 74 71 61 61 65 65 65 58 52 55 48 48 61 68 61 61 68 68 65 55
77 77 77 81 84 84 84 84 81 81 77 77 74 71 68 65 74 77 77 71 71 74 74 74 71 71 55 52 61 58 58 68 55 52 52 48 52 58 68 71 71 65 58
77 81 81 71 84 84 84 81 81 74 77 74 74 68 61 61 58 68 68 71 71 71 68 74 71 61 52 48 52 48 58 58 55 55 48 55 55 52 58 68 71 65 61
74 77 77 74 84 81 81 77 77 74 71 71 68 65 61 58 55 58 65 61 61 55 58 45 58 48 45 45 45 45 48 52 55 52 55 52 55 58 52 52 55 61 61
74 71 74 71 74 71 71 74 74 71 65 58 61 58 45 48 45 52 52 58 48 52 52 52 52 48 45 48 35 29 39 42 48 48 48 52 58 55 42 32 39 42 52
68 68 68 68 65 68 68 65 68 65 61 58 52 52 45 45 45 45 45 52 48 55 55 45 39 39 35 42 32 29 32 26 35 42 52 52 45 48 29 29 35 29 19
68 61 58 65 65 61 61 68 61 61 61 58 52 52 42 42 45 39 48 48 45 52 45 48 42 39 32 32 32 29 16 26 35 29 42 42 32 35 35 19 19 19 16
52 58 55 58 58 55 58 58 58 61 48 45 48 48 45 45 45 45 48 48 45 42 45 45 39 35 32 32 32 29 23 13 19 26 26 32 35 35 29 26 19 16 16
45 52 45 55 52 52 48 52 52 45 39 42 45 45 42 42 39 39 39 39 45 39 39 35 35 39 32 23 32 29 26 13 10 10 16 19 26 29 19 10 10 10 16
32 32 42 42 42 45 42 42 42 42 42 39 32 35 32 32 32 26 29 26 35 35 35 35 35 35 32 29 29 26 26 23 13 0 0 10 13 23 23 13 10 10 13
29 39 39 42 45 42 45 39 39 39 39 32 29 26 26 29 29 29 26 29 29 26 32 35 35 32 32 29 29 26 23 16 13 6 0 3 6 10 19 13 13 10 6

GEFSSE_con_cape1000_162.txt.gz
Probability
45 100 100 100 100 100 100 100 100 100 100 100 100 100 100 100 100 100 100 100 94 94 90 87 94 90 90 87 94 94 97 97 97 97 97 97 100 94 97 94 90 90 100
55 100 100 100 100 100 100 100 100 100 100 100 97 97 100 100 100 100 94 94 90 90 84 87 90 87 87 90 87 90 87 90 97 97 90 90 94 97 97 94 90 90 94
81 100 100 100 100 100 100 100 100 100 100 100 100 100 100 100 97 97 97 90 90 94 87 90 84 84 90 87 94 87 87 90 94 90 87 77 84 90 94 94 90 97 94
77 87 100 100 100 100 100 100 100 100 100 100 100 100 100 97 97 97 97 94 94 97 94 94 90 87 87 81 81 81 77 74 81 84 65 65 71 90 90 84 90 90 87
77 81 97 100 100 100 100 100 100 100 100 100 100 100 100 100 100 97 94 90 94 90 87 77 77 74 74 68 68 74 71 77 87 68 58 45 55 90 90 90 90 90 90
68 90 97 97 97 97 97 94 94 97 97 97 97 97 100 97 97 94 94 90 87 81 74 77 77 74 71 68 71 74 87 84 74 42 52 42 55 84 90 90 90 94 87
71 90 94 97 94 94 94 97 97 97 97 97 97 94 94 94 94 97 94 84 84 81 74 68 74 71 71 68 68 71 90 90 65 42 29 32 42 84 87 87 90 90 90
68 90 94 94 94 94 97 97 97 97 97 97 94 94 94 94 94 90 87 90 87 84 77 74 68 74 71 74 74 77 81 87 52 42 29 29 48 87 87 87 87 90 90
68 81 90 94 94 94 94 94 94 94 97 97 94 90 94 94 90 87 84 87 90 90 77 77 74 74 87 90 90 90 94 94 48 32 39 26 68 84 84 84 87 84 90
52 77 81 87 87 94 94 94 94 94 94 94 94 90 90 84 87 87 87 90 90 90 90 94 90 90 94 90 90 94 90 71 39 29 23 32 58 74 77 77 84 81 81
42 58 71 77 74 81 87 94 94 94 94 90 87 90 87 74 74 77 81 87 81 84 84 84 81 84 87 87 87 84 81 52 29 13 13 29 61 71 77 81 77 84 81
39 42 55 65 71 68 77 81 74 77 77 74 68 71 74 58 55 68 71 81 81 81 81 81 81 81 77 74 65 77 48 29 19 3 6 42 61 71 77 77 81 81 84
26 32 42 48 58 61 58 65 68 65 65 68 68 65 61 52 45 58 55 71 74 77 74 77 74 68 58 45 32 26 23 10 10 13 19 52 71 74 68 77 74 81 74
26 32 39 45 48 45 58 58 58 58 61 65 58 55 42 39 35 39 42 45 55 61 45 45 48 48 42 32 13 16 16 10 3 10 13 58 58 65 61 68 71 71 74
32 39 35 35 29 39 48 45 52 45 45 45 39 42 35 29 39 39 48 39 39 29 26 29 35 35 29 23 10 13 10 6 3 3 26 61 65 68 68 65 61 65 68
39 42 39 32 39 39 39 42 42 42 32 26 29 39 45 32 32 35 26 26 26 29 19 19 19 23 19 16 13 13 6 6 6 3 6 32 55 68 71 68 65 65 58
48 42 35 39 42 35 39 39 35 39 29 32 35 39 35 39 29 26 19 19 19 16 16 16 13 10 10 10 10 6 6 6 3 6 6 13 26 39 65 68 65 61 61
45 39 39 45 42 35 35 35 39 42 45 45 48 39 42 35 23 23 26 23 13 10 6 6 0 3 6 3 3 6 6 3 3 6 6 10 10 16 32 58 68 65 61
45 39 35 39 35 26 29 35 42 35 39 45 39 35 29 32 23 19 16 19 13 10 6 13 3 0 0 0 0 0 0 0 0 3 3 10 6 6 10 26 52 52 55
39 35 42 35 32 29 35 32 29 32 26 23 35 23 29 35 29 23 13 13 10 10 10 6 3 0 0 0 0 0 0 0 0 0 3 3 6 6 3 10 19 29 45
26 29 29 26 29 32 35 35 35 29 29 26 26 23 32 29 26 13 13 13 13 13 10 10 6 0 0 0 0 0 0 0 0 0 0 3 6 6 6 3 3 3 13
32 26 26 23 23 26 29 35 29 26 29 23 23 19 19 23 13 13 16 13 16 13 13 6 3 0 0 0 0 0 0 0 0 0 0 0 3 6 3 6 3 0 0
29 26 23 23 23 26 26 23 26 26 19 16 10 10 16 16 13 10 10 13 10 6 6 3 3 0 0 0 0 0 0 0 0 0 0 0 0 0 0 3 3 0 0
23 23 23 23 26 23 26 23 23 16 16 16 6 6 6 13 16 13 13 13 10 3 3 3 3 3 3 0 0 0 0 0 0 0 0 0 0 0 0 0 3 0 3
23 23 23 23 23 19 23 19 19 16 16 6 3 6 6 6 10 13 16 16 6 6 6 3 3 0 0 0 0 0 0 0 0 0 0 0 0 0 0 0 0 0 0
19 23 23 23 23 23 19 19 19 16 13 3 6 6 6 3 6 13 13 10 6 6 3 3 3 0 0 0 0 0 0 0 0 0 0 0 0 0 0 0 0 0 0

GEFSSE_con_cape1000_168.txt.gz
Probability
16 68 97 97 97 100 100 97 100 100 100 100 100 100 100 100 100 100 100 100 97 94 90 87 84 84 81 81 87 90 90 94 94 90 84 87 87 87 94 94 87 84 94
42 84 100 100 97 97 100 97 97 100 100 100 100 100 100 100 100 97 90 94 94 87 84 84 81 84 84 84 87 90 94 97 90 87 74 71 77 87 94 87 87 90 94
65 90 100 100 100 100 100 97 97 100 97 97 100 100 100 97 97 97 94 90 90 87 81 77 84 84 81 87 90 94 90 87 90 84 74 74 81 81 87 84 87 94 90
68 84 97 100 100 100 100 100 97 100 97 97 100 97 97 97 97 94 87 87 87 90 87 81 81 84 84 84 87 87 87 81 81 81 74 68 71 81 90 87 87 84 90
81 81 94 97 97 97 97 97 100 100 100 100 100 97 97 97 97 90 87 90 94 94 84 84 77 81 84 81 84 84 81 77 84 71 61 68 71 84 94 90 87 84 87
81 77 94 97 94 94 94 97 97 97 97 97 94 94 94 90 90 87 87 90 90 87 81 77 77 77 74 71 77 77 84 84 77 52 58 61 55 74 87 90 87 90 84
84 84 90 97 97 94 94 97 97 97 97 94 94 94 94 94 90 94 94 87 84 81 81 77 81 81 74 74 74 74 77 77 55 48 42 58 58 68 87 90 87 90 87
84 84 90 94 94 94 94 94 94 94 94 94 90 90 87 87 90 90 90 87 84 84 87 84 74 77 77 74 77 74 74 87 55 45 42 48 58 77 90 87 87 87 87
81 84 84 94 94 94 94 94 94 94 94 94 90 90 90 87 87 90 87 84 81 84 84 84 84 87 90 87 84 84 84 87 55 45 42 45 58 74 87 84 81 84 87
77 77 77 84 94 94 94 94 94 94 94 90 90 90 87 84 77 84 81 84 84 84 81 84 84 77 84 84 87 81 84 81 52 45 45 48 61 71 87 87 81 81 81
68 68 68 74 74 81 87 94 90 90 90 90 84 87 81 77 74 77 81 84 84 84 84 84 84 77 77 81 84 87 74 61 39 45 29 42 68 68 74 81 81 77 77
55 65 68 71 74 74 81 77 74 77 74 74 74 77 74 68 61 71 74 81 81 84 84 81 81 77 74 71 68 71 61 45 35 32 29 48 81 74 71 74 77 77 77
39 55 61 65 65 68 65 65 61 65 68 65 71 65 65 55 52 61 55 65 74 74 74 74 77 71 68 61 58 45 39 26 26 26 19 61 74 68 65 68 74 77 77
32 39 52 55 58 55 55 61 55 58 58 58 58 61 55 45 39 48 45 42 52 61 58 58 52 52 52 45 48 35 29 19 13 13 10 42 65 61 71 68 65 71 77
19 26 32 42 45 52 45 52 55 55 55 55 52 48 45 42 35 39 26 29 32 32 32 32 29 29 35 35 32 35 32 26 23 16 10 23 55 55 58 55 61 61 61
19 16 23 35 39 39 35 32 39 42 42 42 45 32 35 35 32 26 16 19 23 26 23 23 19 23 26 26 29 29 19 13 16 19 19 19 35 48 52 52 58 65 58
13 16 19 26 32 29 23 23 23 19 19 23 23 19 23 26 19 10 13 13 13 16 13 16 16 6 6 10 16 13 13 13 10 6 6 10 16 32 35 52 55 61 58
16 16 13 23 26 19 16 16 16 16 16 19 16 16 19 16 10 6 13 13 13 10 13 6 3 0 0 3 6 6 10 10 10 3 3 3 3 10 26 29 45 58 55
19 16 16 16 16 13 13 13 13 16 13 10 6 6 10 13 13 6 6 6 6 3 3 10 0 0 0 0 0 0 0 0 0 3 3 3 3 3 16 23 35 39 45
23 16 13 16 13 13 13 13 13 6 3 3 6 6 6 16 13 6 3 3 3 3 3 0 0 0 0 0 0 0 0 0 0 0 0 3 3 3 3 6 23 29 39
19 13 13 13 13 13 10 10 10 13 3 3 6 6 10 10 16 6 3 3 0 3 3 3 0 0 0 0 0 0 0 0 0 0 0 0 0 3 3 3 10 10 16
23 16 13 13 13 13 10 10 6 3 3 6 6 10 6 6 0 10 0 0 0 0 3 3 0 0 0 0 0 0 0 0 0 0 0 0 0 3 3 3 3 6 6
23 16 16 10 10 13 13 6 3 3 3 3 6 6 6 6 6 6 0 0 0 0 0 0 0 0 0 0 0 0 0 0 0 0 0 0 0 0 0 3 0 0 6
16 16 16 13 13 13 10 10 10 10 10 6 3 3 3 0 3 0 0 0 0 0 3 0 0 0 0 0 0 0 0 0 0 0 0 0 0 0 0 0 0 3 3
13 10 13 16 16 13 10 10 10 13 10 3 3 3 0 3 3 3 3 0 0 0 3 3 3 0 0 0 0 0 0 0 0 0 0 0 0 0 0 0 0 0 0
13 13 13 16 19 16 10 10 10 6 6 3 3 3 3 3 3 3 3 3 3 0 0 0 3 3 3 0 0 0 0 0 0 0 0 0 0 0 0 0 0 0 0

GEFSSE_con_cape1000_174.txt.gz
Probability
19 61 94 94 94 97 97 97 100 100 100 100 100 100 100 100 100 100 97 97 97 87 77 81 77 77 74 84 77 74 77 77 84 81 77 77 77 87 97 87 90 87 90
32 77 97 97 97 100 94 94 100 100 100 100 100 100 100 100 97 97 94 94 90 84 84 77 77 81 77 77 74 74 77 74 81 74 77 74 81 74 81 77 74 81 84
48 84 94 100 100 100 97 97 100 100 100 100 100 100 100 97 94 94 94 87 84 84 84 77 77 74 81 81 84 77 81 74 74 74 77 74 77 77 84 81 81 81 84
55 71 68 97 100 97 97 100 97 100 100 100 100 100 97 97 94 87 87 87 84 81 77 74 71 74 71 77 77 77 81 87 84 71 68 58 65 81 90 87 84 84 87
61 68 90 94 94 94 97 97 97 97 97 97 97 97 97 90 87 87 87 84 87 84 77 74 71 71 77 77 81 77 77 87 84 74 45 39 71 87 77 87 84 84 87
48 65 87 94 94 94 94 94 94 94 94 90 94 90 87 81 81 84 87 90 84 81 77 77 71 74 81 77 77 81 84 84 74 55 42 55 65 84 77 81 84 84 84
52 55 84 94 94 94 94 94 94 94 94 94 94 90 87 81 81 87 87 77 77 77 77 71 74 74 71 74 74 74 84 84 68 48 55 55 71 81 81 84 87 87 87
58 61 90 94 94 94 94 94 94 94 94 94 87 87 87 87 90 87 84 81 74 81 81 81 77 74 77 74 71 68 71 84 61 39 52 58 81 77 84 90 84 87 87
55 61 90 90 94 94 94 94 94 94 90 90 87 90 87 87 90 87 84 77 74 77 81 81 81 81 81 81 74 71 74 74 48 65 45 61 74 74 84 90 90 87 84
71 74 81 81 81 87 87 94 94 90 90 94 87 87 84 87 81 77 81 84 77 77 77 77 87 87 81 84 81 74 74 68 45 42 58 61 81 71 81 87 87 84 81
71 71 77 77 84 77 77 81 87 87 87 84 84 87 84 84 74 74 71 77 77 81 84 84 84 81 81 81 77 71 71 55 35 39 58 65 74 77 77 84 84 84 81
81 81 81 84 81 74 71 81 81 74 81 81 84 84 90 84 74 68 74 77 77 77 81 81 81 81 77 74 77 71 65 42 42 52 65 65 71 74 74 74 71 77 81
84 84 84 90 81 68 84 84 84 84 84 87 81 77 84 74 74 74 74 77 81 77 77 81 81 77 68 68 74 65 58 48 52 58 61 71 74 81 77 74 71 71 71
71 77 81 81 81 81 77 84 81 77 81 81 77 74 74 71 74 74 81 74 74 77 77 77 74 61 61 71 58 55 48 58 55 45 68 68 68 68 71 74 71 68 68
71 68 77 77 77 84 87 84 74 77 74 74 74 68 71 74 71 71 71 74 71 68 74 77 68 65 71 61 52 42 48 52 52 45 52 52 52 58 61 71 68 68 65
68 65 71 74 77 77 68 71 71 71 71 68 71 71 71 71 71 68 71 71 71 71 71 68 65 65 71 61 55 42 39 45 42 55 48 48 52 61 61 61 61 61 55
68 61 68 68 71 71 71 65 65 61 61 55 58 61 65 65 68 65 65 68 68 68 68 65 58 71 68 58 52 42 45 39 45 52 45 45 42 48 55 55 58 55 65
68 68 65 55 58 58 61 58 55 58 61 61 58 55 52 55 65 68 65 58 65 65 61 58 61 55 55 52 52 42 42 55 42 45 45 42 52 39 42 52 45 55 52
74 68 61 58 55 55 55 55 55 55 55 55 55 52 48 48 48 48 55 68 65 61 61 55 42 45 42 45 45 55 45 39 45 39 39 39 39 42 35 35 42 42 39
58 61 61 55 55 55 55 52 55 52 52 48 48 48 48 45 48 45 45 48 52 58 58 58 45 42 42 48 19 23 35 39 35 35 26 19 32 32 23 23 35 32 32
55 52 58 55 55 55 55 48 48 42 39 45 52 45 45 42 42 45 42 45 48 48 48 48 39 35 42 32 29 16 26 19 19 19 10 16 16 16 19 19 23 23 23
42 42 42 48 45 45 52 52 42 39 42 45 45 42 42 42 45 32 39 39 39 39 35 32 32 39 29 26 26 23 13 16 23 6 6 6 6 13 16 16 16 23 19
32 35 26 29 35 39 42 39 39 42 42 45 42 39 35 32 35 35 35 35 39 35 35 35 26 26 26 19 23 16 10 3 13 6 6 6 10 10 10 13 13 13 23
23 26 26 32 35 39 35 32 29 35 35 39 42 35 35 35 32 32 32 29 29 26 35 29 23 26 19 19 19 19 13 10 10 10 6 3 10 16 13 10 10 13 13
23 23 32 32 35 39 35 32 32 32 32 32 35 35 35 35 35 26 29 29 29 29 23 23 19 16 13 13 16 13 13 10 6 3 3 3 3 3 10 6 10 13 6
19 16 19 26 32 32 35 32 32 35 35 35 32 35 35 32 29 23 23 26 23 26 23 19 23 19 10 13 16 16 13 13 6 3 0 3 3 0 6 10 13 16 16

GEFSSE_con_cape1000_180.txt.gz
Probability
45 55 90 94 97 97 90 97 97 94 94 97 97 97 94 90 81 84 84 84 71 71 71 74 71 77 71 65 68 71 81 77 77 84 84 90 90 87 81 74 84 77 87
65 61 97 94 97 94 94 94 94 94 97 97 97 94 87 90 87 90 81 84 74 74 71 77 71 68 68 58 68 68 71 74 74 71 77 77 81 87 84 77 81 94 90
77 74 87 100 94 94 94 94 94 97 94 94 94 94 94 87 90 87 84 81 77 77 77 68 61 65 65 65 68 74 71 68 65 71 84 84 81 90 81 74 81 84 84
77 68 81 100 97 94 94 94 94 94 94 94 94 94 90 84 84 84 84 84 74 77 74 61 61 65 68 74 74 77 74 77 77 87 74 68 71 90 87 87 84 87 84
68 65 94 97 97 94 90 90 90 87 90 90 90 84 84 81 81 81 81 87 81 77 77 71 58 68 68 68 74 71 77 81 87 97 68 77 77 94 94 84 87 84 84
68 71 90 94 97 94 90 90 87 87 87 90 90 84 84 81 81 81 81 81 81 81 71 65 61 65 68 65 68 71 77 81 81 71 68 68 81 94 90 84 84 84 84
71 77 90 94 94 94 94 90 90 94 94 94 90 87 87 81 81 84 84 87 87 74 71 74 74 71 71 71 71 65 71 77 81 65 68 68 81 94 87 84 84 84 87
84 87 90 94 94 94 94 94 94 94 90 90 90 87 87 84 84 81 81 81 84 77 77 74 74 74 74 74 74 71 71 68 61 48 58 74 84 90 84 84 81 87 90
81 94 90 90 94 94 94 94 94 90 90 90 90 87 87 84 84 81 81 81 81 77 74 77 77 77 74 81 84 84 77 77 71 48 58 68 77 77 81 81 81 84 87
81 84 90 84 87 90 94 94 90 90 90 90 90 87 84 81 84 84 87 84 84 84 81 81 81 81 84 81 84 87 84 84 61 48 45 77 84 81 81 81 81 81 87
74 84 81 81 77 77 77 87 87 87 87 87 84 87 84 84 84 81 77 84 84 74 77 81 84 87 84 84 84 90 87 71 39 39 52 71 81 77 77 77 81 81 77
68 84 77 65 71 61 65 81 81 77 77 81 74 81 81 81 77 65 61 77 77 77 81 81 81 84 81 77 77 81 74 48 32 29 61 71 81 77 77 77 81 74 74
65 71 68 61 71 61 68 77 71 77 81 77 74 84 81 81 77 68 68 71 81 77 77 77 81 81 71 68 65 68 55 29 19 39 58 68 74 74 74 77 77 77 81
65 77 74 68 74 71 77 77 74 68 74 74 77 77 74 74 71 68 68 74 74 71 74 68 71 71 71 68 71 61 58 48 45 45 61 77 77 65 68 81 81 77 81
65 68 71 71 81 84 84 84 74 84 68 68 71 74 74 74 68 71 71 68 61 65 71 74 71 71 68 61 52 52 61 55 52 58 52 68 68 68 68 71 71 71 74
65 65 71 71 74 74 77 77 77 74 71 68 71 71 71 71 68 68 65 65 65 65 61 68 65 65 61 55 55 61 58 58 55 61 52 55 61 65 65 65 68 71 68
61 65 71 68 71 74 71 71 68 74 71 68 68 65 65 68 68 65 65 61 65 58 55 58 58 61 52 45 52 58 48 55 55 52 55 48 48 58 61 68 65 71 71
61 71 71 65 68 74 71 68 68 71 61 65 65 58 58 58 61 65 61 61 61 55 52 52 48 39 42 39 42 45 48 52 52 48 52 48 48 32 52 58 61 65 68
61 68 61 65 71 71 71 65 68 61 55 55 55 48 48 48 48 55 55 55 55 48 45 42 39 45 39 35 32 35 35 45 35 23 39 39 45 39 39 48 58 68 55
55 61 58 58 61 65 68 68 65 58 52 48 45 45 45 42 39 45 39 45 45 42 42 42 45 45 42 39 23 13 23 26 26 29 32 23 32 35 39 29 39 39 48
52 61 68 55 55 65 61 61 61 55 55 48 45 42 42 39 35 39 35 35 42 45 42 39 42 35 39 35 26 19 16 19 26 26 23 26 26 26 26 32 29 19 23
45 55 52 52 52 65 61 61 61 48 45 45 45 45 39 39 35 35 39 35 35 35 39 45 42 35 29 23 16 13 3 10 19 19 23 19 16 23 23 19 23 26 23
45 45 45 61 58 55 61 55 45 48 48 42 48 52 42 39 39 39 39 39 39 39 39 39 32 23 13 13 10 10 3 0 10 19 16 10 10 13 13 16 16 19 23
39 45 45 48 45 61 52 42 39 42 42 42 45 45 39 39 35 35 39 35 35 35 39 39 35 26 16 6 16 13 10 6 3 6 16 10 13 10 6 6 3 16 23
29 39 42 45 52 55 52 52 45 39 42 39 42 39 42 42 42 32 32 29 29 26 35 35 29 19 13 13 10 10 6 10 6 0 0 6 6 10 6 13 19 16 19
29 35 39 42 45 52 45 42 39 35 29 29 35 39 35 32 32 29 26 32 32 29 29 26 23 23 16 13 10 6 6 3 3 3 3 3 3 6 6 6 6 16 10

GEFSSE_con_cape1000_186.txt.gz
Probability
39 81 100 100 97 97 97 97 100 100 100 97 97 94 97 94 94 90 94 94 90 90 81 77 71 71 74 71 68 74 74 84 84 87 87 94 90 87 87 84 87 84 97
39 87 97 97 97 100 100 100 100 100 100 100 100 94 97 90 90 90 90 90 84 74 74 68 61 65 68 68 65 68 71 77 87 84 87 84 87 90 90 90 84 81 94
48 81 97 97 100 100 100 100 100 100 100 97 97 97 90 90 90 90 90 90 84 74 65 61 61 58 65 61 65 65 71 68 74 77 74 65 74 87 97 94 90 94 94
58 77 90 100 100 100 100 100 97 97 97 94 94 90 87 87 87 87 87 84 77 77 71 65 58 58 61 65 68 71 71 65 68 81 61 65 68 81 94 94 90 94 94
58 77 87 100 100 100 100 97 97 90 90 94 94 90 87 87 87 84 84 77 74 74 77 68 61 61 65 61 65 68 65 74 77 77 52 52 52 74 84 94 94 90 90
58 71 90 100 100 97 97 97 90 90 90 87 87 87 87 84 81 81 81 81 81 77 77 65 61 65 71 71 74 74 74 74 71 58 42 42 52 77 81 87 84 87 87
55 74 87 100 97 97 94 94 94 94 94 90 90 90 87 87 84 84 84 84 81 81 68 65 68 71 71 71 71 74 71 71 55 45 29 35 45 87 87 90 90 90 90
58 74 87 97 97 94 94 94 94 94 90 90 90 87 87 87 87 84 84 87 87 87 77 74 77 77 74 77 77 74 74 68 65 48 26 26 48 87 90 87 84 81 87
55 71 77 87 90 97 94 94 94 90 90 90 90 90 84 84 84 84 84 84 81 81 81 74 81 77 77 77 81 84 77 84 65 45 29 23 55 81 81 84 84 81 81
52 61 77 81 87 84 87 90 90 87 87 87 87 87 87 87 84 84 84 81 81 77 77 77 74 77 81 81 84 84 81 77 65 55 35 19 77 84 87 81 81 77 81
48 48 65 68 71 71 74 81 84 87 87 87 87 87 87 81 74 77 81 81 81 81 81 77 77 77 77 81 77 84 84 68 55 45 26 35 81 84 84 81 77 77 81
35 35 32 58 58 65 68 74 81 81 81 74 74 71 71 65 58 58 58 71 71 74 74 74 74 74 74 68 71 74 71 61 42 35 13 61 71 84 77 77 77 77 81
32 32 26 32 45 48 48 61 58 61 61 58 61 61 52 48 48 45 42 52 61 61 58 68 68 68 65 65 55 45 48 52 32 29 23 61 71 71 71 77 81 81 81
39 35 35 35 32 42 45 55 48 52 58 55 52 52 48 42 39 35 39 39 45 55 52 48 48 52 52 45 32 26 29 32 32 6 3 52 71 68 68 71 74 77 84
39 39 32 35 32 32 39 42 45 52 52 45 48 45 45 39 29 29 29 32 45 42 35 29 32 32 35 29 26 16 13 26 26 6 3 52 61 65 71 74 74 77 74
35 39 39 45 39 35 42 35 32 26 42 39 42 39 39 29 32 29 29 29 32 32 26 26 19 13 16 13 10 13 10 3 3 3 6 29 55 61 68 71 68 65 65
32 29 35 32 39 32 32 29 23 19 19 19 19 23 29 26 23 23 23 23 26 19 19 16 10 10 3 0 3 3 3 0 0 0 3 10 23 48 58 61 61 68 65
26 23 29 39 35 35 32 29 26 26 23 19 19 19 29 26 23 23 19 16 16 13 16 13 6 3 3 3 3 3 3 0 0 0 0 0 6 13 29 48 52 55 58
23 26 23 26 19 13 16 16 19 19 26 26 26 29 26 29 32 29 23 19 16 13 13 13 3 3 3 3 3 0 0 0 0 0 0 0 0 3 3 19 39 48 55
23 19 19 19 19 19 16 16 16 10 13 19 19 19 29 26 26 26 23 19 16 16 6 6 6 0 3 0 0 0 0 0 0 0 0 0 0 0 3 3 3 29 45
16 13 10 13 10 16 16 19 16 10 16 13 16 23 19 23 19 23 26 16 16 13 3 3 3 3 0 0 0 0 0 0 0 0 0 0 0 0 3 0 3 3 10
16 13 6 6 10 10 10 10 10 10 13 16 19 23 23 16 26 26 13 16 10 10 6 3 3 3 3 3 0 0 0 0 0 0 0 0 0 0 0 0 0 0 3
10 6 10 6 10 10 13 10 10 10 13 13 16 19 23 23 26 23 16 16 16 13 10 10 3 3 3 3 0 0 0 0 0 0 0 0 0 0 0 0 0 0 0
10 6 6 6 6 6 6 10 10 10 13 10 10 13 16 16 19 19 13 13 13 13 13 6 6 3 0 3 3 0 0 0 0 0 0 0 0 0 0 0 0 0 0
6 6 6 0 3 3 6 6 6 6 6 10 6 10 6 10 10 10 3 3 6 10 10 10 6 6 3 3 3 3 3 0 0 0 0 0 0 0 0 0 0 0 0
6 3 3 3 0 3 3 6 6 6 3 3 3 6 6 6 6 3 3 3 0 0 3 3 3 6 6 3 3 3 3 0 0 0 0 0 0 0 0 0 0 0 0

GEFSSE_con_cape1000_192.txt.gz
Probability
16 71 97 94 87 84 90 94 97 100 100 100 97 97 97 97 97 94 94 94 94 90 84 81 77 71 74 71 74 74 71 84 77 74 74 81 87 84 87 87 87 87 94
16 71 97 97 94 87 90 97 97 100 100 97 97 97 94 94 94 94 94 94 94 90 81 74 71 71 71 74 74 74 74 74 81 84 74 77 87 87 90 90 84 84 97
45 74 97 97 94 94 97 97 97 100 97 97 97 90 90 90 94 94 94 90 90 81 71 61 65 68 71 71 71 71 71 74 77 81 84 81 87 84 90 90 90 94 94
48 74 90 97 97 94 97 97 94 97 97 97 94 90 87 87 90 87 87 87 84 81 65 58 61 61 61 68 65 71 77 74 84 77 71 68 74 77 84 87 90 94 94
48 74 84 97 97 97 97 94 94 94 90 90 90 90 87 90 87 84 84 81 77 81 71 58 58 61 71 71 74 74 74 71 74 77 68 68 65 71 87 90 94 94 94
52 65 84 97 97 97 94 94 90 90 90 90 87 87 87 84 84 87 87 81 81 77 77 68 65 71 68 68 71 71 68 71 71 68 58 58 55 68 84 90 90 97 97
55 65 87 94 94 94 94 97 90 90 90 90 87 90 90 87 87 87 87 81 77 74 74 74 71 74 71 71 65 65 68 68 68 65 55 45 48 65 84 84 90 90 90
52 68 84 97 87 90 94 94 94 94 94 90 90 90 87 84 84 84 84 84 81 77 77 77 77 81 84 77 74 74 74 74 68 52 52 39 48 68 87 94 87 87 87
52 61 71 81 84 87 87 87 87 87 87 84 84 87 84 84 84 84 84 81 81 81 77 81 81 77 81 74 74 71 74 68 74 55 48 35 42 68 84 87 87 87 87
48 48 52 68 68 74 81 81 81 84 84 81 81 77 77 77 77 77 81 84 81 77 74 74 81 77 71 71 74 68 71 74 65 52 45 35 48 65 81 87 87 87 84
39 42 45 45 61 65 68 74 77 74 74 74 74 74 71 71 68 68 77 77 74 77 71 68 68 71 71 61 65 68 71 68 61 52 48 48 74 74 77 87 87 84 84
32 29 35 39 55 55 65 58 65 68 68 65 65 68 65 61 55 61 61 71 71 68 68 65 68 65 65 58 58 61 61 58 61 58 35 48 74 74 77 77 84 84 84
19 35 35 39 45 55 48 45 52 48 45 45 48 48 52 52 45 55 52 55 55 58 58 61 61 61 61 52 48 55 52 48 48 45 39 55 65 71 77 77 77 77 77
23 32 26 29 35 35 35 39 48 42 42 45 45 45 42 48 42 39 39 42 42 39 45 45 48 45 45 45 39 42 39 35 39 35 26 48 65 58 74 71 77 74 74
19 19 19 16 23 23 26 32 39 35 35 35 42 39 42 39 39 35 39 35 35 39 39 42 42 42 39 32 35 29 26 29 32 26 19 39 61 58 65 68 71 71 71
19 19 19 13 16 23 23 26 26 32 32 32 35 35 35 39 35 32 32 32 32 32 32 39 39 32 29 32 26 23 19 16 19 19 13 16 45 65 65 65 68 68 68
16 16 16 16 16 16 23 23 26 26 29 29 29 39 39 35 29 26 23 26 19 26 32 26 19 23 23 16 13 16 10 10 10 6 3 3 13 35 61 61 65 68 61
16 16 13 16 13 13 19 19 16 26 26 26 29 29 32 29 23 23 16 13 19 23 26 19 16 13 16 10 6 6 6 6 6 6 0 3 6 6 32 45 52 55 55
10 10 13 10 6 13 13 10 10 10 13 13 16 16 19 26 16 19 13 13 13 16 16 10 10 13 10 6 6 6 6 6 3 0 3 3 3 6 13 23 42 45 45
13 16 16 10 10 13 6 6 6 6 6 6 6 10 13 16 13 16 13 13 13 13 10 10 6 6 6 10 6 6 3 0 0 0 0 3 0 0 0 6 29 32 42
6 10 6 10 3 0 0 3 3 6 3 3 3 3 6 3 10 10 16 16 16 10 10 10 6 6 6 0 3 3 3 3 0 3 0 0 0 0 0 0 3 13 16
3 3 3 3 0 0 0 3 3 3 3 3 3 3 3 3 6 10 13 13 13 13 10 6 6 6 6 3 3 3 3 3 0 0 0 0 0 0 0 0 3 3 0
0 0 3 3 3 0 0 0 0 0 0 3 3 3 3 3 3 6 6 6 10 13 10 3 3 0 0 0 3 3 3 0 0 0 0 0 0 0 0 0 0 0 0
0 0 0 3 3 0 0 0 0 0 3 3 3 3 0 3 3 3 3 3 3 3 3 3 3 0 0 0 0 0 0 0 0 0 0 0 0 0 0 0 0 0 0
0 0 0 0 0 0 0 0 0 0 0 0 0 0 0 0 0 0 3 3 3 3 3 3 3 3 0 0 3 3 3 3 0 0 0 0 0 0 0 0 0 0 0
0 0 0 0 0 0 0 0 0 0 0 0 0 0 0 0 0 0 3 0 0 0 0 0 0 0 0 0 0 0 0 0 0 0 0 0 0 0 0 0 0 0 0

GEFSSE_con_cape1000_198.txt.gz
Probability
26 74 94 94 94 100 100 100 100 97 94 97 100 100 97 94 94 94 90 90 90 84 77 81 74 74 77 74 77 77 71 74 81 81 84 84 81 81 90 84 84 77 87
42 74 97 97 94 94 97 97 97 97 97 94 97 94 94 94 94 90 90 90 87 77 81 77 74 74 74 74 71 74 71 74 77 74 81 77 81 84 77 77 81 87 90
52 81 90 94 94 94 94 97 97 97 97 94 90 94 94 90 87 90 90 87 81 74 74 74 77 74 74 71 71 71 74 77 77 81 84 65 65 84 84 81 77 84 94
48 74 74 94 94 94 94 97 97 97 94 94 90 90 84 84 84 84 84 84 81 71 71 71 71 68 65 65 65 68 74 74 77 71 65 45 52 84 81 74 81 81 84
48 58 87 90 90 94 90 90 97 94 90 94 84 84 84 84 84 84 81 77 77 74 68 71 68 68 68 68 68 68 74 77 74 61 42 52 65 84 81 77 84 87 90
52 61 84 90 90 90 87 84 84 84 84 87 81 81 81 84 84 84 84 81 81 77 74 74 74 74 71 71 68 65 68 74 65 42 48 48 68 87 71 74 77 84 90
52 58 81 90 90 90 84 84 84 81 87 87 84 84 84 84 81 81 81 77 77 81 77 74 74 77 74 71 65 65 68 68 52 39 45 48 55 77 74 71 74 87 90
55 58 81 84 84 84 81 81 81 81 81 84 81 77 77 74 74 77 74 81 81 81 81 81 77 77 77 77 74 68 68 65 42 26 39 45 65 74 77 81 84 87 87
55 68 71 71 77 81 84 84 81 77 81 81 81 74 74 71 74 71 74 71 77 77 77 74 71 71 74 74 71 71 74 71 55 42 39 52 58 65 74 81 87 87 87
55 52 61 58 58 71 77 77 81 77 77 71 68 68 68 68 71 74 74 74 71 71 71 71 71 68 71 74 74 74 74 71 52 35 45 65 58 61 74 77 81 84 87
45 45 48 52 58 55 52 68 71 71 65 68 65 68 68 58 55 68 61 68 68 68 65 68 71 68 68 65 65 65 71 42 29 42 61 65 61 65 65 74 81 77 84
45 42 45 45 45 45 48 61 61 58 58 55 55 58 61 61 61 55 52 61 61 65 65 68 68 71 55 58 61 61 55 35 26 42 61 65 68 68 68 71 77 77 74
45 45 42 42 52 52 55 58 65 58 58 61 61 61 65 65 61 61 68 68 71 65 65 58 65 58 55 55 52 52 45 26 32 35 48 71 68 65 65 71 77 77 77
55 48 45 42 52 55 55 55 58 58 58 58 58 55 61 58 58 58 71 71 71 65 65 61 61 58 55 55 45 39 39 42 26 35 55 58 58 61 61 65 71 77 77
52 48 45 48 58 65 61 58 55 58 58 58 55 52 52 55 52 58 58 61 61 55 55 55 58 55 58 48 45 35 35 26 26 19 39 48 58 58 61 68 61 65 74
58 58 45 55 58 58 58 55 55 48 55 52 52 52 48 52 52 52 42 48 45 45 45 52 48 45 48 52 42 42 32 26 29 32 29 35 55 52 52 58 61 58 58
45 55 55 52 52 48 52 42 42 42 42 42 48 48 45 48 45 42 39 42 42 39 45 48 42 39 42 42 39 42 45 29 26 29 26 26 32 48 48 52 55 55 55
32 39 45 42 45 42 45 39 39 42 42 35 39 42 48 42 45 45 42 39 42 42 42 42 35 35 42 42 45 48 48 42 35 29 19 23 26 26 32 48 52 52 55
39 35 35 32 42 45 42 39 39 39 39 35 32 29 35 42 45 45 39 39 45 48 45 42 42 39 35 42 39 45 35 35 35 19 16 19 19 26 29 42 45 48 52
39 42 35 29 32 42 35 42 32 32 32 32 32 32 35 35 39 39 39 39 35 45 42 39 35 35 35 32 26 19 26 29 32 29 29 16 19 23 26 23 39 45 48
39 29 29 26 26 32 32 29 26 23 29 29 23 19 23 29 26 32 26 32 32 29 35 29 32 32 32 35 35 19 19 26 26 29 26 16 13 13 19 26 29 35 45
29 23 26 23 23 23 23 26 26 26 23 19 16 19 19 23 23 23 32 29 29 29 29 29 29 29 26 29 26 23 16 23 26 19 26 19 10 13 16 10 26 39 32
23 19 16 19 16 16 19 19 19 19 16 10 13 16 19 16 16 26 23 26 26 29 35 35 32 26 29 23 23 23 10 13 10 10 19 16 13 13 13 10 23 32 32
23 19 19 16 19 16 16 16 10 16 13 16 16 3 6 13 13 13 16 19 32 29 32 29 26 29 29 23 26 23 16 3 13 6 13 10 10 10 13 10 6 23 32
10 10 13 16 13 10 10 10 13 10 10 10 3 0 10 10 10 13 16 19 26 32 29 29 32 29 29 23 23 19 16 10 3 13 3 3 6 6 10 16 19 16 23
6 10 10 10 10 10 13 10 10 13 13 10 10 10 10 16 6 10 13 16 19 26 32 29 29 29 29 29 26 13 13 6 3 6 6 6 13 6 6 10 26 23 23

GEFSSE_con_cape1000_204.txt.gz
Probability
52 61 97 94 97 97 94 94 94 97 97 97 100 100 97 90 84 81 87 77 77 77 74 71 74 71 68 65 68 68 68 77 81 77 81 81 81 84 81 77 87 87 97
58 68 97 97 97 97 97 94 94 90 94 94 94 94 94 94 87 84 87 81 74 77 74 74 74 65 65 65 65 65 61 74 74 74 74 74 74 81 84 81 81 94 94
61 68 87 97 90 94 94 90 87 87 90 94 94 90 90 90 87 84 90 81 74 71 74 74 68 65 61 61 61 65 68 71 74 74 74 71 77 84 81 77 77 87 87
61 58 71 90 90 90 90 90 87 87 87 84 84 84 81 77 81 81 81 77 71 68 68 68 61 61 61 61 58 58 61 71 71 84 65 61 55 87 84 87 74 74 84
58 68 87 90 90 87 90 84 87 84 84 81 77 81 74 77 74 74 74 71 68 68 65 65 65 65 61 65 65 65 61 68 71 81 58 55 61 87 87 87 77 77 74
68 71 87 90 90 90 90 87 87 84 84 77 74 77 74 77 77 81 81 71 68 71 71 68 68 68 74 71 65 65 65 71 68 52 48 65 65 94 90 74 74 74 71
68 77 87 90 90 90 87 87 87 84 77 74 71 74 77 77 77 77 74 68 68 68 68 71 77 77 77 71 71 74 68 68 65 45 35 55 68 90 84 77 68 65 68
55 61 81 87 87 87 84 84 81 81 77 74 81 81 77 74 74 74 74 68 71 74 71 71 77 77 77 74 74 74 74 74 58 29 32 52 84 87 84 81 71 74 77
45 68 77 74 81 87 87 84 84 81 74 68 68 71 71 71 71 74 74 65 68 71 71 71 71 74 81 77 74 71 71 71 65 39 39 45 74 74 71 74 81 77 81
39 52 58 68 68 71 74 77 77 74 77 71 71 71 74 74 74 71 71 71 71 71 71 71 71 77 77 77 81 74 68 71 58 39 35 52 71 71 71 74 74 74 74
39 42 45 55 65 58 61 71 81 77 77 71 65 65 65 68 68 65 68 71 71 71 68 68 68 68 74 77 77 77 68 52 29 39 52 65 74 74 68 71 74 71 68
42 45 45 48 48 58 55 68 71 65 65 61 61 61 65 65 68 58 58 71 68 65 65 68 68 68 68 52 52 71 52 39 23 23 52 71 71 74 68 68 68 71 71
45 48 45 39 45 48 61 58 68 68 61 65 65 58 65 58 61 65 65 61 65 65 65 68 65 58 48 45 42 45 35 26 16 23 45 71 68 68 68 68 68 71 71
45 39 42 45 48 58 58 61 61 61 58 61 61 65 68 68 61 52 61 58 58 58 58 55 61 58 45 48 35 32 35 32 32 35 42 65 68 65 58 61 61 68 68
55 52 52 55 65 65 65 71 61 71 58 58 61 61 61 58 55 52 55 55 55 55 55 48 39 52 45 39 39 32 19 16 29 32 42 55 55 52 65 61 65 68 68
52 55 52 55 58 58 65 71 65 65 65 61 55 55 48 48 48 48 48 45 42 45 45 48 42 39 42 39 39 39 32 26 26 29 26 35 48 52 61 65 61 68 65
55 52 55 52 52 52 52 55 52 52 52 48 48 52 52 48 48 42 45 45 39 48 48 48 45 42 42 39 39 35 35 35 29 29 26 26 35 48 58 58 61 55 61
42 52 55 29 45 55 55 45 29 35 32 32 35 42 45 45 45 45 42 42 45 42 45 48 48 45 35 39 35 35 35 35 35 35 29 23 26 26 35 45 52 55 58
45 48 52 48 48 48 39 35 29 32 35 32 32 35 32 39 39 35 39 35 39 35 45 35 39 35 39 29 32 32 39 35 39 32 29 29 23 19 16 19 39 55 52
42 42 45 42 48 39 35 32 32 26 29 26 29 29 29 29 23 26 29 26 29 32 45 39 42 39 35 26 19 19 32 35 42 35 32 19 19 16 16 13 3 13 45
42 39 48 42 45 48 32 32 35 23 23 26 26 19 23 26 19 26 23 29 32 32 39 39 35 29 29 35 26 23 23 29 29 29 19 19 10 10 10 19 19 23 3
42 35 32 39 35 42 35 35 32 26 19 23 23 23 16 29 29 19 26 26 32 29 29 23 35 26 23 26 19 13 13 19 16 6 13 10 10 16 10 10 16 16 13
29 29 26 35 39 39 39 32 23 29 26 26 23 23 29 26 23 26 26 16 29 26 26 29 23 23 16 16 19 13 13 6 6 13 10 6 16 6 10 6 10 13 13
23 23 29 35 35 45 32 29 23 13 16 19 23 19 19 26 26 29 26 19 23 32 35 29 19 19 16 13 19 19 19 19 6 3 6 6 13 16 10 3 6 13 16
16 16 23 29 35 45 35 26 23 19 16 19 23 26 29 29 29 29 26 26 23 23 29 29 26 26 26 23 23 23 19 6 6 3 3 13 10 6 10 13 10 10 10
19 16 19 23 35 35 29 19 16 16 16 19 23 26 26 23 26 26 23 23 26 23 26 26 26 23 19 19 19 16 13 13 13 10 3 3 3 3 10 16 16 6 10

GEFSSE_con_cape1000_210.txt.gz
Probability
45 84 90 94 97 97 97 97 94 94 94 90 90 97 94 90 90 87 84 84 84 84 81 74 71 74 74 74 74 77 81 84 84 84 81 87 84 77 87 87 87 87 94
48 87 94 90 94 94 94 94 94 94 94 94 87 84 87 87 84 87 84 84 81 81 74 74 71 68 68 68 68 77 77 77 81 77 77 74 84 84 87 84 90 90 97
55 81 90 90 94 94 94 94 94 87 90 90 90 87 84 87 87 87 81 81 74 77 71 71 68 65 65 65 58 58 61 68 68 71 71 48 55 77 90 90 90 97 100
52 61 81 90 94 94 94 90 87 87 87 87 84 81 81 90 84 81 77 74 71 71 71 68 65 61 61 65 65 65 65 65 61 65 52 48 39 68 90 94 100 100 97
48 55 87 94 94 94 90 90 87 87 84 84 84 77 77 77 74 77 68 71 71 71 68 61 71 71 65 65 68 71 68 71 71 61 48 29 23 58 84 94 94 90 90
42 61 90 90 90 90 90 87 87 87 84 84 81 71 71 74 71 71 71 74 74 68 68 65 65 68 71 68 68 68 68 68 61 45 35 32 26 61 84 87 87 84 90
52 61 84 84 87 87 87 84 84 84 81 77 74 71 71 74 74 77 77 74 74 74 71 68 71 74 74 71 74 74 68 74 55 39 29 19 26 68 87 90 74 81 81
58 65 81 81 81 77 81 84 84 84 81 71 71 71 68 74 74 74 74 71 71 71 68 65 71 71 74 74 74 77 77 71 65 39 29 19 32 74 84 81 81 81 71
52 61 68 77 81 81 81 77 81 84 81 74 71 74 74 74 74 77 77 71 68 65 65 65 68 68 74 77 77 74 77 74 61 35 26 16 32 71 68 81 77 71 74
39 42 55 65 65 71 74 77 81 77 77 77 71 71 71 68 68 71 71 71 65 65 65 65 65 61 68 68 68 71 71 74 55 39 19 26 48 68 71 74 74 71 71
32 32 39 42 39 45 52 68 58 65 65 65 71 71 65 58 52 55 65 71 68 68 65 65 68 68 65 65 68 68 71 45 32 23 19 35 68 65 77 74 74 65 68
23 23 19 23 32 32 42 52 52 55 48 48 45 52 52 52 42 48 55 68 61 61 61 65 61 61 58 52 48 52 32 26 26 16 19 48 65 65 65 68 68 65 65
16 19 16 32 32 35 35 39 48 35 29 35 42 35 32 32 39 39 35 35 48 52 48 48 48 48 45 39 32 29 29 26 19 16 16 39 55 65 58 65 65 71 65
16 19 16 23 26 26 23 29 32 23 26 32 29 32 35 35 35 39 35 35 39 42 42 35 39 32 26 29 23 19 19 19 13 3 6 45 52 55 58 58 61 61 68
19 19 19 23 26 29 23 23 23 13 16 23 32 32 32 29 29 32 32 26 26 29 19 23 26 23 23 19 16 16 16 16 6 3 0 29 42 42 48 45 52 55 61
16 26 19 23 23 23 13 3 6 10 13 16 13 10 19 19 23 19 13 16 19 16 13 10 13 16 16 16 13 13 13 10 10 6 6 16 39 45 52 48 55 55 55
13 13 16 16 16 19 19 10 16 16 6 3 3 6 3 10 3 10 10 6 6 3 6 10 6 10 10 13 10 13 13 6 6 6 6 13 23 35 52 45 45 52 52
10 10 10 16 13 19 19 13 6 3 3 3 6 6 6 6 6 6 3 3 3 3 3 3 6 6 6 3 6 6 6 6 10 3 3 10 6 13 32 45 48 52 48
10 10 10 13 13 10 10 6 3 3 3 0 6 6 3 3 3 0 3 6 3 3 0 3 3 3 3 0 3 3 0 0 0 0 0 6 6 6 6 13 32 35 42
10 6 6 10 3 3 6 10 3 3 3 6 3 3 3 3 3 0 0 0 3 0 0 0 0 0 0 0 3 3 0 0 0 0 3 0 0 0 0 0 10 16 32
10 10 6 3 3 6 3 3 6 6 3 3 3 0 0 0 0 0 0 0 0 0 0 0 0 0 0 0 0 0 0 0 0 0 0 0 0 0 0 0 0 0 6
10 10 10 6 10 10 10 6 3 0 3 3 3 0 0 0 0 0 0 0 0 0 0 0 0 0 0 0 0 0 0 0 0 0 0 0 0 0 0 0 0 0 0
13 10 13 13 10 10 6 6 6 0 0 0 0 0 0 0 0 0 0 0 0 0 0 0 0 0 0 0 0 0 0 0 0 0 0 0 0 0 0 0 0 0 0
19 19 13 10 6 6 3 6 3 3 0 0 0 0 0 0 0 0 0 0 0 0 0 0 0 0 0 0 0 0 0 0 0 0 0 0 0 0 0 0 0 0 0
16 16 13 6 6 6 0 0 3 0 0 0 0 0 0 0 0 0 0 0 0 0 0 0 0 0 0 0 0 0 0 0 0 0 0 0 0 0 0 0 0 0 0
13 13 10 6 6 3 3 0 0 0 0 0 0 0 0 0 0 0 0 0 0 0 0 0 0 0 0 0 0 0 0 0 0 0 0 0 0 0 0 0 0 0 0

GEFSSE_con_cape1000_216.txt.gz
Probability
35 61 94 90 90 87 87 90 90 90 90 90 90 90 90 94 94 94 87 87 87 87 87 87 87 84 84 87 87 84 81 77 74 77 74 71 74 71 77 81 74 71 87
32 71 87 90 87 87 87 90 90 94 90 90 87 84 84 90 90 87 87 87 87 87 84 84 84 87 84 81 81 87 90 81 81 81 68 68 74 71 77 87 84 77 84
61 68 87 87 87 87 87 90 90 94 94 90 87 84 81 84 87 84 77 81 84 71 68 71 77 71 74 71 77 74 74 71 77 71 74 61 68 77 77 84 77 87 84
55 58 71 87 87 84 87 90 94 94 90 90 90 87 81 81 84 81 77 74 74 71 65 61 68 55 68 68 65 65 68 65 68 71 45 48 55 71 74 81 84 84 84
45 48 74 87 87 87 90 90 94 94 90 87 87 84 84 77 81 77 74 71 71 65 68 61 58 58 61 58 65 68 68 68 65 61 32 35 45 65 74 84 87 81 87
35 42 68 84 90 90 87 84 87 84 84 87 87 84 84 71 71 74 77 71 74 74 68 65 65 61 61 61 61 71 71 71 65 48 35 32 35 52 68 77 84 81 84
39 45 71 81 84 84 81 77 84 81 84 84 81 77 71 74 74 74 68 71 71 71 71 68 71 65 61 61 61 61 65 68 58 39 35 32 39 55 68 77 77 81 81
39 52 68 81 77 81 77 81 77 81 77 81 77 77 71 77 71 71 68 65 68 68 68 68 71 71 71 68 65 65 68 65 61 42 32 32 39 52 71 77 81 84 84
29 48 58 68 74 77 81 81 81 74 71 68 71 74 68 74 68 65 61 61 68 71 68 68 68 68 71 71 74 71 68 65 52 48 32 26 39 52 65 71 71 74 84
29 45 52 55 61 65 71 81 74 71 71 68 71 71 81 71 61 61 65 65 65 68 68 68 68 68 68 68 68 68 65 61 45 32 39 29 48 61 65 68 68 68 74
26 29 35 35 35 45 55 65 68 68 68 68 61 68 68 55 48 52 55 61 61 58 61 61 65 68 61 61 61 58 55 48 42 32 19 32 55 61 71 68 68 65 68
16 23 16 23 26 32 52 55 52 55 55 39 42 45 42 42 42 52 45 58 55 55 58 61 61 55 48 48 48 55 52 42 39 26 19 35 61 58 58 71 68 68 65
16 13 13 19 19 19 29 29 32 32 32 35 35 32 29 32 35 39 39 39 42 39 42 42 42 39 45 45 45 42 35 32 29 23 23 39 52 58 55 58 65 61 65
13 10 10 10 6 6 13 23 23 13 13 16 23 26 26 29 26 29 32 29 29 32 35 39 32 32 32 32 29 39 35 32 29 19 23 32 45 45 48 52 58 58 65
10 6 3 6 6 6 3 10 16 13 13 13 13 19 19 23 23 19 23 26 26 29 32 26 26 23 23 29 19 26 32 26 23 19 16 19 39 48 48 48 52 58 61
3 6 6 3 3 0 3 6 6 6 10 3 6 6 10 13 16 16 16 16 23 19 19 16 19 19 16 19 19 19 19 19 19 13 10 13 26 42 52 52 52 48 58
3 3 3 3 3 0 0 3 3 6 3 3 6 10 6 6 6 10 13 13 13 16 16 13 13 10 6 13 13 16 10 10 13 13 13 6 10 32 32 45 48 48 52
3 0 0 0 0 0 0 0 3 0 3 3 0 0 6 6 6 3 3 6 6 10 13 10 6 6 6 6 10 10 6 13 13 10 10 10 13 16 23 35 48 52 55
0 0 0 0 0 0 0 0 0 0 0 3 3 0 0 3 3 3 3 0 0 0 3 3 6 6 3 0 3 3 3 6 10 10 10 10 6 16 13 19 29 39 39
3 3 0 0 0 0 0 0 0 0 0 0 0 0 0 0 0 0 0 0 0 0 0 0 0 0 0 0 0 0 0 0 6 6 3 3 0 3 6 10 13 16 26
6 6 0 0 0 0 0 0 0 0 0 0 0 0 0 0 0 0 0 0 0 0 0 0 0 0 0 0 0 0 0 0 0 0 0 0 0 3 3 3 6 6 10
6 3 0 0 0 0 0 0 0 0 0 0 0 0 0 0 0 0 0 0 0 0 0 0 0 0 0 0 0 0 0 0 0 0 0 0 0 0 3 3 0 3 6
6 3 3 0 0 0 0 0 0 0 0 0 0 0 0 0 0 0 0 0 0 0 0 0 0 0 0 0 0 0 0 0 0 0 0 0 0 0 0 0 0 0 0
6 10 3 0 0 0 3 3 0 0 0 0 0 0 0 0 0 0 0 0 0 0 0 0 0 0 0 0 0 0 0 0 0 0 0 0 0 0 0 0 0 0 0
6 10 3 0 0 0 3 3 0 0 0 0 0 0 0 0 0 0 0 0 0 0 0 0 0 0 0 0 0 0 0 0 0 0 0 0 0 0 0 0 0 0 0
10 6 3 3 0 0 3 3 3 0 0 0 0 0 0 0 0 0 0 0 0 0 0 0 0 0 0 0 0 0 0 0 0 0 0 0 0 0 0 0 0 0 0

GEFSSE_con_cape1000_222.txt.gz
Probability
29 52 84 84 84 84 81 81 90 90 94 87 81 84 81 81 81 84 81 81 84 84 81 81 84 84 84 77 77 74 74 74 77 68 77 77 77 71 68 74 74 77 87
35 58 84 87 87 84 84 84 84 87 87 90 90 87 87 84 87 84 84 84 84 81 84 81 77 81 84 77 74 74 84 81 77 81 77 77 74 81 71 65 74 81 84
45 68 74 87 87 87 87 87 87 87 87 90 87 87 84 81 77 77 77 81 81 77 77 77 77 81 81 81 81 77 77 77 77 71 74 58 61 77 77 74 74 81 84
42 65 58 87 87 87 87 84 84 87 84 87 87 81 77 77 74 74 74 74 74 77 74 74 74 77 71 71 65 68 71 77 74 71 48 35 42 74 77 71 77 81 74
39 52 81 87 87 87 84 81 81 77 84 87 84 84 84 77 77 74 71 74 74 74 71 71 74 65 61 68 68 68 68 65 68 55 39 42 55 71 68 68 71 71 71
39 39 65 74 81 84 81 77 77 77 74 87 87 87 84 81 81 77 74 74 74 74 68 68 58 61 61 61 65 65 65 58 58 42 42 39 45 61 61 61 71 68 77
29 39 52 74 81 81 77 81 77 77 77 81 84 84 84 84 74 71 71 71 74 71 61 61 58 61 61 61 65 61 65 65 55 35 35 39 48 58 52 61 68 71 84
29 35 55 71 81 81 77 74 71 71 74 77 77 74 77 77 74 74 71 65 65 58 61 58 65 61 58 58 61 58 61 65 45 23 26 26 52 58 52 61 68 71 77
32 32 45 45 71 77 81 74 74 74 74 74 71 71 71 68 68 68 68 61 61 52 55 65 68 68 71 71 65 58 61 58 42 29 23 29 55 58 65 65 71 71 68
32 32 39 42 48 55 65 74 74 68 68 71 71 74 68 65 68 65 58 55 52 55 52 55 65 61 61 65 68 68 61 55 29 29 32 35 55 58 58 58 65 68 71
29 35 39 39 42 48 48 58 61 68 65 65 58 68 71 58 52 52 35 61 52 52 55 52 52 55 58 58 61 58 55 48 29 39 42 45 58 58 58 58 58 61 65
35 39 35 39 42 48 55 58 61 61 61 65 68 61 65 58 52 45 52 55 52 52 52 52 52 52 55 48 45 48 39 48 35 45 45 45 55 48 52 58 58 58 58
39 32 35 45 45 48 52 52 61 61 58 58 55 61 61 58 55 48 45 55 52 52 52 48 48 35 35 35 35 35 29 23 32 35 42 52 55 45 45 52 52 52 52
29 29 29 32 42 45 39 42 55 48 55 58 58 52 55 52 52 45 48 48 52 48 45 45 42 35 35 26 23 23 19 19 23 32 52 52 55 48 45 42 45 58 55
39 39 35 35 45 45 45 45 32 35 32 29 39 39 42 42 42 48 42 39 32 35 35 39 35 39 35 32 29 23 23 13 19 13 29 55 55 48 48 42 42 42 55
39 32 35 32 39 39 39 35 32 29 35 29 29 32 32 32 32 29 35 32 29 32 32 29 26 29 32 35 32 26 26 19 23 32 19 35 45 45 42 42 42 39 42
42 35 35 32 35 39 29 29 29 26 29 23 23 26 23 26 29 29 26 29 26 26 29 19 23 26 26 29 29 29 29 23 26 29 29 29 26 26 42 39 39 42 42
35 35 39 19 35 35 35 35 29 26 23 23 29 26 19 19 26 29 26 26 26 29 23 19 19 19 19 19 23 32 26 35 26 26 29 26 26 16 29 32 35 39 42
29 35 35 35 35 32 32 32 26 26 26 23 23 19 16 19 19 23 23 19 26 19 16 13 23 23 19 19 19 26 29 26 29 23 23 23 23 26 19 29 35 35 35
35 35 35 32 32 29 26 26 26 26 26 23 16 13 19 16 16 16 13 16 16 16 23 23 26 26 23 23 10 13 23 23 32 29 26 26 26 16 19 19 29 19 26
35 32 32 29 29 32 29 26 26 26 26 26 13 10 10 10 16 16 10 19 19 16 19 23 26 19 19 23 19 16 10 10 16 23 23 19 13 16 16 23 26 29 23
32 29 29 29 26 23 23 26 26 23 23 13 13 6 13 10 13 10 13 13 19 19 16 13 23 19 23 19 19 10 6 10 19 6 10 19 13 16 16 16 23 26 23
26 26 26 29 29 26 23 23 23 19 13 13 10 10 6 10 10 13 13 13 19 13 19 16 16 16 16 23 19 16 10 10 10 3 0 0 13 19 16 13 13 16 16
29 26 26 29 29 29 26 23 19 19 13 13 13 10 10 10 10 10 13 13 16 19 19 13 6 13 23 19 19 23 13 3 6 3 3 3 16 16 13 6 10 13 16
26 29 29 29 29 29 23 19 26 19 19 13 13 13 13 10 13 13 13 13 19 13 13 13 13 16 19 19 16 16 13 16 6 10 10 6 10 13 10 13 13 13 13
23 26 26 29 26 23 23 23 23 19 19 16 13 13 10 13 13 13 13 16 13 13 13 16 13 13 16 19 19 13 6 6 3 10 6 13 13 3 10 13 16 16 13

GEFSSE_con_cape1000_228.txt.gz
Probability
48 58 81 84 87 87 87 84 87 90 90 84 84 74 74 71 77 77 81 81 81 81 87 74 74 74 71 71 74 77 77 74 77 74 71 61 65 61 61 68 68 61 94
48 58 84 87 87 84 84 81 84 84 84 81 84 77 77 71 71 77 84 84 81 77 77 77 77 74 77 74 77 81 74 74 71 71 74 68 71 74 65 71 74 77 87
52 61 71 90 84 81 81 81 81 81 81 84 81 77 77 74 74 77 77 77 77 77 77 77 77 71 71 74 74 71 68 71 71 77 77 65 74 84 74 74 77 81 81
45 52 61 90 87 84 81 77 74 74 77 77 81 77 77 74 71 74 71 71 74 74 74 77 77 65 68 68 65 65 61 71 74 74 68 48 52 71 77 71 61 61 65
45 55 84 84 84 81 77 77 77 77 74 74 74 77 74 74 74 74 68 68 71 77 74 68 68 65 65 61 61 55 61 68 74 68 48 48 48 74 74 68 68 61 65
52 61 71 81 84 77 77 77 77 74 71 68 71 74 77 77 74 77 77 71 68 68 71 68 61 61 55 55 52 52 52 61 58 39 42 48 55 68 61 55 45 58 61
45 68 68 81 74 77 77 74 74 68 68 65 61 68 81 81 77 74 71 71 68 68 65 61 58 55 55 55 55 58 55 58 52 29 32 48 55 68 65 55 45 48 58
42 58 68 74 74 74 77 74 74 71 68 68 65 71 77 81 71 71 74 71 65 61 52 52 55 55 58 61 61 58 58 58 32 16 23 45 58 68 65 58 58 52 65
32 45 58 65 74 77 77 77 77 74 77 71 68 71 74 77 77 65 68 58 58 58 52 48 55 55 58 65 65 61 61 71 48 23 16 39 61 68 71 65 55 58 65
26 39 42 42 52 58 71 77 77 77 74 68 65 68 71 74 71 71 68 68 58 52 52 52 55 52 58 68 71 61 61 65 26 16 26 42 71 68 61 61 65 65 74
32 35 35 35 42 39 35 58 68 74 71 68 65 74 74 48 52 61 58 68 61 58 58 58 55 55 61 61 68 68 65 29 10 19 35 45 65 61 58 65 65 68 65
23 29 23 26 39 39 42 45 48 42 58 58 48 55 61 71 65 48 58 68 68 65 61 58 58 58 55 42 48 58 35 19 19 29 29 48 58 55 52 65 58 61 61
29 29 23 29 39 35 45 52 48 48 55 55 58 58 58 61 61 55 58 58 58 58 48 45 48 45 45 42 42 35 29 16 23 23 29 52 55 58 45 52 55 58 58
29 29 29 29 32 32 48 52 52 55 48 55 55 48 55 61 55 45 48 42 42 42 48 45 42 32 32 29 26 23 16 16 19 23 23 52 58 55 48 48 52 52 55
39 42 42 42 45 48 58 58 39 42 35 42 52 55 48 48 52 48 48 55 42 39 35 35 29 29 32 23 23 19 16 16 16 23 29 45 52 61 55 48 48 55 55
45 48 48 48 45 55 52 48 45 32 42 45 42 39 39 52 55 52 52 58 42 32 35 35 26 39 32 26 23 19 19 19 19 26 19 45 52 55 52 45 48 58 55
48 45 42 45 48 45 45 39 39 32 32 39 42 42 42 35 35 39 45 48 42 39 39 35 35 35 29 23 23 23 23 16 16 19 26 26 32 45 52 52 55 52 45
42 45 42 32 42 48 55 45 35 32 39 42 39 32 39 35 35 35 39 32 42 35 35 35 35 29 23 23 23 23 19 29 19 23 19 29 32 23 35 45 52 52 52
42 39 39 39 39 35 39 45 39 45 39 32 32 35 32 35 32 35 35 29 35 26 23 19 19 29 26 19 19 23 19 23 26 16 19 19 29 32 23 32 42 45 45
39 39 45 48 48 45 42 42 42 39 35 35 32 39 35 29 26 26 23 26 26 23 23 26 23 29 23 26 6 6 13 19 23 26 19 16 29 32 32 26 29 39 35
35 42 45 42 45 48 42 42 35 35 32 29 26 32 32 29 26 26 16 23 23 19 19 19 19 10 16 13 13 6 16 16 16 19 23 26 23 32 26 29 23 19 19
32 35 39 39 35 39 39 39 42 32 32 29 32 35 26 32 29 10 19 19 26 23 23 26 23 16 10 10 16 13 10 6 13 10 19 23 16 23 26 23 23 19 13
29 32 29 32 35 39 39 39 39 39 29 29 26 29 26 26 26 19 19 16 26 19 19 23 16 10 10 13 10 6 6 3 6 10 10 10 19 26 19 16 19 16 16
29 29 39 45 48 45 35 35 32 29 23 26 35 29 23 26 23 19 16 16 16 19 19 19 16 13 10 10 16 13 16 13 3 6 3 3 10 16 26 10 10 19 19
23 23 29 39 45 39 35 39 39 32 29 29 26 19 26 26 23 13 16 19 19 19 19 16 16 13 10 10 10 10 10 13 10 6 3 3 6 16 19 16 10 13 13
26 23 23 23 32 32 32 32 32 29 23 29 23 26 19 19 16 16 13 29 29 29 19 13 13 13 10 13 16 10 10 13 6 3 3 3 3 10 13 3 6 13 13

GEFSSE_con_cape1000_234.txt.gz
Probability
26 77 87 87 87 90 84 81 77 77 77 81 81 87 87 84 87 87 87 84 81 77 77 77 77 74 71 74 71 71 77 81 74 68 65 65 74 77 74 71 74 68 84
29 74 87 87 87 90 84 84 77 77 77 77 81 87 84 84 84 84 81 84 81 74 68 74 74 74 77 77 74 74 71 74 71 65 71 68 68 74 77 74 81 71 87
48 68 84 87 90 87 84 84 81 77 77 77 77 81 84 84 81 81 77 81 81 81 74 74 77 77 74 77 71 68 65 65 61 68 65 52 61 74 81 84 77 77 81
45 61 68 87 87 87 87 84 81 74 77 81 74 77 81 81 81 77 77 77 81 81 81 77 77 77 71 71 68 65 65 61 61 65 52 39 45 81 84 84 77 74 81
35 48 74 84 87 87 84 81 81 81 81 74 74 71 74 74 74 81 81 77 77 77 74 74 74 71 65 65 65 68 61 61 61 52 29 23 32 77 87 81 68 65 68
35 48 77 81 84 84 87 84 84 81 77 77 74 74 74 71 77 77 77 74 68 65 65 68 68 68 68 65 61 58 61 58 42 29 19 23 35 71 74 68 65 68 65
32 45 68 81 87 81 81 87 84 81 77 74 77 77 77 77 81 77 77 71 65 61 61 58 65 68 65 61 58 55 61 48 29 16 13 13 23 68 74 71 74 68 71
32 42 61 68 74 81 84 81 81 81 81 74 71 74 77 81 81 81 74 68 68 61 65 61 65 65 68 65 61 58 58 52 35 23 13 13 26 58 61 68 68 61 68
26 32 55 61 65 65 71 74 74 84 81 77 77 74 77 77 77 77 77 71 68 65 58 55 48 55 58 68 68 65 65 58 35 10 16 10 35 61 65 71 71 71 68
26 32 42 45 48 55 58 65 71 77 71 71 71 74 77 68 74 71 71 71 68 61 58 55 52 52 58 61 65 65 61 48 23 10 10 16 42 55 61 74 71 68 68
19 23 29 35 35 39 45 58 61 68 65 68 68 68 68 52 45 58 65 71 65 71 68 65 58 58 58 65 58 58 45 23 16 6 6 26 55 61 55 61 61 65 65
23 19 16 26 32 35 42 45 48 48 42 42 42 48 45 35 32 35 52 71 68 61 68 61 65 58 48 29 29 39 26 13 16 6 13 39 42 58 52 61 68 55 52
13 16 10 13 19 19 19 23 26 26 19 23 29 29 29 26 32 29 35 45 52 55 52 48 48 42 32 19 19 19 16 13 10 6 6 35 52 52 55 58 52 55 58
10 3 6 10 10 6 10 10 13 13 16 19 16 19 16 16 13 13 19 19 29 35 35 26 23 26 23 23 16 16 16 16 6 6 6 32 48 52 55 52 55 55 58
6 0 0 6 10 6 3 3 6 3 6 3 3 10 6 13 13 10 13 13 13 19 16 19 16 19 19 19 16 16 13 13 10 3 3 35 39 48 48 52 52 52 55
3 6 6 10 6 0 0 3 3 6 6 6 3 6 6 6 6 6 6 6 6 10 13 13 13 16 13 13 13 16 13 6 6 6 10 19 42 48 52 48 48 52 55
6 6 10 10 3 3 3 6 10 10 13 10 6 6 6 3 0 3 3 6 6 10 10 13 13 13 13 13 10 10 6 6 3 6 6 16 19 32 42 45 55 55 48
10 6 6 10 3 6 6 13 13 13 13 10 3 3 3 6 0 0 3 3 6 6 6 10 6 3 3 3 3 0 0 0 0 0 6 6 6 10 26 42 45 52 55
13 13 13 10 10 10 10 16 16 10 6 6 6 3 3 3 6 3 3 3 3 6 3 3 6 0 0 0 0 0 0 0 0 0 0 0 0 3 3 19 35 48 48
19 16 16 16 13 13 19 16 13 13 10 10 10 13 10 6 6 3 3 0 3 3 3 0 0 0 0 0 0 0 0 0 0 0 0 0 0 0 3 6 19 23 35
23 19 13 16 19 23 23 16 13 13 10 10 10 10 13 10 6 3 3 3 6 3 3 3 0 0 0 0 0 0 0 0 0 0 0 0 0 0 0 3 3 6 10
16 19 16 16 16 16 16 16 13 13 10 10 10 10 10 6 6 6 3 3 6 6 3 3 0 0 0 0 0 0 0 0 0 0 0 0 0 3 0 0 0 0 0
13 16 19 16 16 16 16 13 16 10 10 10 6 10 10 6 6 6 6 3 3 3 6 3 3 0 0 0 0 0 0 0 0 0 0 0 0 0 0 0 0 0 0
13 16 19 16 16 13 13 13 13 16 10 10 10 6 0 3 3 3 3 3 0 0 0 0 0 0 0 0 0 0 0 0 0 0 0 0 0 0 0 0 0 0 0
19 19 19 16 13 13 13 13 13 10 6 3 3 6 0 0 3 3 3 3 0 0 0 0 0 0 0 0 0 0 0 0 0 0 0 0 0 0 0 0 0 0 0
19 19 19 19 16 13 13 13 13 10 6 6 10 6 3 0 0 0 3 3 3 0 0 0 0 0 0 0 0 0 0 0 0 0 0 0 0 0 0 0 0 0 0

GEFSSE_con_cape1000_240.txt.gz
Probability
26 48 84 90 90 84 81 81 81 84 84 84 84 87 81 87 87 81 81 81 84 81 81 77 81 77 71 71 68 71 68 68 61 68 68 68 71 68 71 77 68 48 81
32 52 81 90 90 84 84 84 81 84 84 84 84 84 84 81 84 84 74 74 74 77 77 77 74 77 81 74 74 74 71 68 71 71 71 68 68 71 71 71 65 58 77
35 55 74 90 87 87 84 84 81 81 84 84 84 81 81 84 81 81 81 77 77 77 77 81 77 77 77 74 77 68 65 65 71 74 71 65 68 74 77 74 71 77 77
39 48 65 87 84 87 81 84 84 81 84 84 81 74 77 77 81 81 77 81 81 84 81 81 77 77 81 74 71 71 68 65 71 65 52 58 58 68 74 74 71 71 74
35 45 61 77 84 84 81 84 84 81 81 81 74 77 74 74 81 84 77 74 77 74 77 74 77 71 71 74 71 71 65 58 61 52 39 48 52 71 77 68 68 65 74
29 35 58 74 77 84 84 81 81 81 74 71 74 77 77 81 81 77 74 71 71 68 68 71 71 74 71 68 65 71 65 68 42 32 35 32 42 65 77 65 71 74 74
26 32 48 71 71 74 74 84 77 81 74 71 68 74 77 77 77 77 84 81 74 68 68 68 68 71 61 61 65 61 58 48 23 26 23 19 32 55 71 71 68 71 77
23 29 45 65 65 68 68 68 71 71 68 71 71 71 71 74 77 77 81 71 71 61 65 65 65 65 68 61 65 61 61 48 26 19 16 19 29 52 68 71 71 74 71
26 26 39 52 55 61 61 61 65 74 71 71 68 68 68 68 65 68 74 71 61 58 55 55 55 61 65 58 55 58 61 48 23 23 23 19 26 48 61 74 71 71 71
19 23 32 42 45 45 48 61 65 65 68 68 65 61 61 61 55 65 68 74 61 58 58 58 55 58 55 52 52 58 58 52 29 26 23 23 29 55 61 65 61 65 58
19 23 26 35 35 39 42 48 58 61 58 58 48 61 61 52 52 52 58 61 61 55 58 61 58 58 52 45 52 58 42 29 23 16 13 29 42 48 52 65 61 58 61
19 16 16 19 19 29 32 29 32 39 32 32 29 32 29 32 35 45 45 58 55 55 58 55 71 61 48 32 32 39 19 13 10 6 10 19 42 52 52 58 55 52 61
13 16 16 13 16 16 16 13 13 16 16 16 23 23 19 19 23 32 26 39 45 45 45 45 42 32 29 23 19 19 16 16 10 6 6 26 32 42 45 55 52 48 52
6 10 10 10 10 10 10 10 13 13 13 13 13 13 10 6 10 19 26 26 26 29 32 29 26 26 23 19 13 16 13 13 13 10 6 19 29 32 35 39 45 52 55
3 6 6 10 6 6 3 3 6 6 10 13 13 10 6 6 6 6 13 13 13 13 19 19 19 16 23 19 13 13 13 13 13 10 6 16 35 35 39 35 42 52 58
3 3 6 3 3 3 3 3 3 3 3 0 0 3 3 3 3 6 3 6 13 13 16 16 16 10 13 16 13 13 13 13 13 10 10 10 29 35 42 39 48 48 52
3 3 3 0 3 3 3 3 0 0 0 0 0 0 6 6 3 3 3 3 6 10 13 16 16 10 6 13 13 13 10 13 13 10 10 10 19 29 42 39 45 52 52
3 3 3 3 0 0 0 0 0 0 0 0 0 0 3 3 3 3 0 3 3 3 6 13 10 6 6 6 6 10 10 10 10 6 10 10 10 10 26 35 35 48 42
0 0 0 0 0 0 0 0 0 0 0 0 0 0 0 0 0 0 0 0 0 0 3 3 6 6 6 6 6 6 6 6 6 3 3 6 10 6 13 16 35 39 45
6 0 0 0 0 0 0 0 0 3 3 3 3 3 3 3 3 3 3 3 0 0 0 3 3 3 6 6 6 3 3 3 3 0 0 3 6 6 6 10 16 23 39
10 3 0 0 0 0 3 3 3 3 3 3 3 3 3 3 3 0 0 0 0 0 0 0 0 0 0 0 3 3 3 3 0 0 0 3 3 3 6 6 10 13 16
6 6 0 0 0 0 0 3 3 3 3 3 3 0 0 0 0 0 0 0 0 0 0 0 0 0 0 0 0 0 0 0 0 0 0 0 0 0 6 6 6 6 10
6 10 3 3 3 0 3 0 0 0 0 0 0 0 0 0 0 0 0 0 0 0 3 0 0 0 0 0 0 0 0 0 0 0 0 0 0 0 0 3 3 3 0
6 6 6 3 3 6 6 3 6 3 3 3 0 0 0 3 3 0 0 0 3 3 3 3 3 0 0 0 0 0 0 0 0 0 0 0 0 0 0 0 0 0 0
13 6 3 3 6 6 6 6 3 0 0 0 0 3 0 3 3 3 3 3 3 3 3 3 3 3 0 0 0 0 0 0 0 0 0 0 0 0 0 0 0 0 0
10 10 3 3 6 6 6 3 0 0 0 0 0 0 0 0 0 3 3 3 3 3 3 3 3 3 3 3 3 0 0 0 0 0 0 0 0 0 0 0 0 0 0